Weather History for Burlington, VT

Change the Weather History Date:

Friday, October 5, 2012

  Actual Average Record
Temperature  
Mean Temperature 66 °F 52 °F  
Max Temperature 74 °F 62 °F 82 °F (1926)
Min Temperature 58 °F 43 °F 27 °F (1964)
Degree Days  
Heating Degree Days 0 13  
Month to date heating degree days 23 61  
Since 1 July heating degree days 170 278  
Cooling Degree Days 1 0  
Month to date cooling degree days 1 0  
Year to date cooling degree days 747 489  
Growing Degree Days 14 (Base 50)    
Moisture  
Dew Point 57 °F    
Average Humidity 73    
Maximum Humidity 93    
Minimum Humidity 53    
Precipitation  
Precipitation T in 0.12 in 2.09 in (1926)
Month to date precipitation 1.45 0.62  
Year to date precipitation 27.81 28.33  
Snow  
Snow 0.00 in 0.00 in 0.00 in (2002)
Month to date snowfall 0.0 0.0  
Since 1 July snowfall 0.0 T  
Since 1 September snowfall 0.0 T  
Snow Depth 0.00 in    
Sea Level Pressure  
Sea Level Pressure 29.93 in    
Wind  
Wind Speed 7 mph (South)    
Max Wind Speed 21 mph    
Max Gust Speed 25 mph    
Visibility 9 miles    
Events      
T = Trace of Precipitation, MM = Missing Value Source: NWS Daily Summary

Daily Weather History Graph

Daily Weather History Graph

Search for Another Location

Airport:

Trip Planner

Search our weather history database for the weather conditions in past years. The results will help you decide how hot, cold, wet, or windy it might be!

Date:

Astronomy

Oct. 05, 2012 Rise Set
Actual Time 6:55 AM EDT 6:25 PM EDT
Civil Twilight 6:26 AM EDT 6:54 PM EDT
Nautical Twilight 5:53 AM EDT 7:27 PM EDT
Astronomical Twilight 5:19 AM EDT 8:01 PM EDT
Moon 9:35 PM EDT (10/5) 12:12 PM EDT (10/5)
Length of Visible Light 12h 27m
Length of Day
11h 29m
Waning Gibbous, 74% of the Moon is Illuminated
Oct 5
Waning Gibbous
Oct 8
Last Quarter
Oct 15
New
Oct 21
First Quarter
Oct 29
Full

Hourly Weather History & Observations

Time (EDT) Temp. Dew Point Humidity Pressure Visibility Wind Dir Wind Speed Gust Speed Precip Events Conditions
12:54 AM 57.0 °F 55.0 °F 93% 29.99 in 10.0 mi Calm Calm - N/A   Clear
1:54 AM 60.1 °F 55.9 °F 86% 29.98 in 10.0 mi South 8.1 mph - N/A   Scattered Clouds
2:54 AM 60.1 °F 57.0 °F 90% 29.97 in 8.0 mi South 9.2 mph - N/A   Scattered Clouds
3:45 AM 60.8 °F 57.2 °F 88% 29.98 in 6.0 mi South 3.5 mph - N/A   Overcast
3:54 AM 60.1 °F 57.9 °F 93% 29.98 in 6.0 mi South 6.9 mph - N/A   Overcast
4:14 AM 60.8 °F 57.2 °F 88% 29.98 in 7.0 mi SSW 4.6 mph - N/A   Overcast
4:54 AM 60.1 °F 57.9 °F 93% 30.00 in 7.0 mi Calm Calm - N/A   Overcast
5:54 AM 57.9 °F 55.9 °F 93% 29.99 in 9.0 mi South 4.6 mph - N/A   Clear
6:54 AM 57.9 °F 55.0 °F 90% 29.99 in 9.0 mi South 6.9 mph - N/A   Partly Cloudy
7:54 AM 59.0 °F 55.9 °F 90% 29.99 in 10.0 mi South 8.1 mph - N/A   Clear
8:54 AM 61.0 °F 55.9 °F 83% 29.99 in 10.0 mi SSW 9.2 mph - N/A   Scattered Clouds
9:54 AM 63.0 °F 57.0 °F 81% 29.97 in 10.0 mi South 16.1 mph 24.2 mph N/A   Partly Cloudy
10:54 AM 66.9 °F 55.9 °F 68% 29.96 in 10.0 mi South 13.8 mph 23.0 mph N/A   Partly Cloudy
11:54 AM 69.1 °F 55.9 °F 63% 29.96 in 10.0 mi South 11.5 mph - N/A   Scattered Clouds
12:54 PM 68.0 °F 55.9 °F 65% 29.93 in 10.0 mi South 10.4 mph - 0.00 in   Mostly Cloudy
1:54 PM 70.0 °F 57.0 °F 63% 29.90 in 10.0 mi South 13.8 mph - N/A   Partly Cloudy
2:54 PM 73.0 °F 55.9 °F 55% 29.88 in 10.0 mi SSW 11.5 mph 18.4 mph N/A   Scattered Clouds
3:54 PM 73.9 °F 57.0 °F 55% 29.87 in 10.0 mi SSW 11.5 mph - N/A   Scattered Clouds
4:54 PM 72.0 °F 57.0 °F 59% 29.87 in 10.0 mi SSW 4.6 mph - N/A   Mostly Cloudy
5:54 PM 69.1 °F 57.9 °F 68% 29.87 in 10.0 mi SW 3.5 mph - N/A   Overcast
6:54 PM 69.1 °F 57.9 °F 68% 29.87 in 10.0 mi Calm Calm - N/A   Overcast
7:54 PM 66.9 °F 57.9 °F 73% 29.86 in 10.0 mi SSW 5.8 mph - N/A   Overcast
8:54 PM 64.9 °F 57.9 °F 78% 29.86 in 10.0 mi SSE 3.5 mph - N/A   Clear
9:54 PM 64.9 °F 57.9 °F 78% 29.87 in 10.0 mi South 5.8 mph - N/A   Partly Cloudy
10:54 PM 64.0 °F 57.9 °F 80% 29.85 in 10.0 mi South 3.5 mph - N/A   Overcast
11:54 PM 64.0 °F 57.9 °F 80% 29.84 in 10.0 mi SSW 4.6 mph - N/A   Overcast